Regional Weather Roundup
Issued by NWS

Home | Current Version | Previous Version | Graphics & Text | Print | Product List | Glossary On
Versions: 1 2 3 4 5 6 7 8 9 10 11 12 13 14 15 16 17 18 19 20 21 22 23 24 25 26 27 28 29 30 31 32 33 34 35 36 37 38 39 40 41 42 43 44 45 46 47 48 49 50
414
ASUS43 KIND 240409
RWRIN

WEATHER ROUNDUP FOR INDIANA
NATIONAL WEATHER SERVICE INDIANAPOLIS IN
1200 AM EDT MON JUL 24 2017

NOTE: "FAIR" INDICATES FEW OR NO CLOUDS BELOW 12,000 FEET WITH NO
SIGNIFICANT WEATHER AND/OR OBSTRUCTIONS TO VISIBILITY.

* - STATION DOES NOT REPORT WEATHER SUCH AS PRECIPITATION OR FOG.

+ - STATION NOT QUALITY CONTROLLED BY THE NATIONAL WEATHER SERVICE.
    USE DATA WITH CAUTION...ESPECIALLY DEWPOINT AND RELATIVE
    HUMIDITY OBSERVATIONS.

INZ001>003-010>013-019-020-240500-
NORTHWEST INDIANA

CITY           SKY/WX    TMP DP  RH WIND       PRES   REMARKS
GARY /AIRPORT/ CLEAR     74  64  69 N8        29.85S
KNOX *+        CLEAR     68  64  88 N7        29.84R
LA PORTE +     CLOUDY    72  69  92 N7        29.86R
MICHIGAN CITY+ MOCLDY    70  70 100 CALM      29.85S
MONTICELLO +   CLEAR     69  67  94 CALM      29.84R
RENSSELAER +   CLEAR     68  64  88 CALM      29.86R
VALPARAISO     CLEAR     72  69  90 N3        29.85R

$$

LMZ046-743>745-240500-
SOUTHERN LAKE MICHIGAN

STATION/POSITION TIME  TEMP    WIND        PRES    WAVE
                       AIR SEA DIR/SP/G            HT
                 (UTC) (F)     (DEG/KT/KT) (MB)    (FT)
BURNS HARBOR     0340   74     360/ 13/ 15 1011.2R
MICHIGAN CITY    0340   74     350/ 12/ 13   N/A
5NW MICH CITY    0400   75 75   10/  8/ 12   N/A     2

$$

INZ004-005-014>016-021>024-240500-
NORTH CENTRAL INDIANA

CITY           SKY/WX    TMP DP  RH WIND       PRES   REMARKS
GOSHEN         PTCLDY    69  61  75 N3        29.83R
LOGANSPORT +   PTCLDY    66  63  88 CALM      29.84S
PERU/GRISSOM   PTCLDY    68  64  88 SW3       29.83R
ROCHESTER +    CLEAR     68  68 100 CALM      29.84R
SOUTH BEND     CLOUDY    71  66  84 NW5       29.84R
WARSAW +       CLOUDY    70  63  78 NW3       29.84R

$$

INZ006>009-017-018-025>027-240500-
NORTHEAST INDIANA

CITY           SKY/WX    TMP DP  RH WIND       PRES   REMARKS
AUBURN +       CLOUDY    73  61  64 CALM      29.83S
FORT WAYNE     PTCLDY    75  65  70 NW3       29.83R
HUNTINGTON +   CLEAR     70  68  95 CALM      29.83R
KENDALLVILLE + PTCLDY    68  65  88 CALM      29.83R

$$

INZ028-029-035-036-043>045-051>053-240500-
WEST CENTRAL INDIANA

CITY           SKY/WX    TMP DP  RH WIND       PRES   REMARKS
GREENCASTLE +  CLOUDY    73  68  83 CALM      29.86R
LAFAYETTE      CLOUDY    69  66  90 SW3       29.84R
TERRE HAUTE    CLOUDY    72  65  78 NW9       29.86R

$$

INZ030>032-037>040-046>048-054>057-064-065-240500-
CENTRAL INDIANA

CITY           SKY/WX    TMP DP  RH WIND       PRES   REMARKS
CP ATTERBURY + CLEAR     70  68  94 SW5       29.86R
FRANKFORT +    PTCLDY    75  69  82 N3        29.86S
GREENWOOD *+   MOCLDY   N/A N/A N/A CALM      29.85R
INDIANAPOLIS   CLOUDY    74  72  93 SW5       29.84R
-EAGLE CREEK   CLOUDY    76  67  73 W3        29.83R
KOKOMO +         N/A     69  66  90 MISG        N/A
MT COMFORT *+  CLOUDY    72  70  94 CALM      29.84R
SHELBYVILLE    CLEAR     72  68  87 CALM      29.85R
ZIONSVILLE +   CLOUDY    73  68  86 NW5       29.86R

$$

INZ033-034-041-042-049-050-058-059-240500-
EAST CENTRAL INDIANA

CITY           SKY/WX    TMP DP  RH WIND       PRES   REMARKS
MUNCIE         CLOUDY    71  68  90 CALM      29.84R
RICHMOND +     CLEAR     66  66 100 W6        29.87R

$$

INZ060-061-067>069-081>083-085>088-240500-
SOUTHWEST INDIANA

CITY           SKY/WX    TMP DP  RH WIND       PRES   REMARKS
EVANSVILLE     CLEAR     75  71  87 CALM      29.88R
HUNTINGBURG *+ CLEAR     74  73  97 CALM      29.88R

$$

INZ062-063-066-070>080-084-089>092-240500-
SOUTH CENTRAL AND SOUTHEAST INDIANA

CITY           SKY/WX    TMP DP  RH WIND       PRES   REMARKS
BEDFORD +      CLEAR     68  64  88 S5        29.85
BLOOMINGTON    CLEAR     71  67  87 CALM      29.86R FOG
MADISON *+     CLEAR     70  68  94 CALM      29.87F
NORTH VERNON + CLEAR     70  68  94 S3        29.85F
SEYMOUR +      CLEAR    N/A N/A N/A CALM      29.85

$$





USA.gov is the U.S. government's official web portal to all federal, state and local government web resources and services.